www.pogodaiklimat.ru

Погода и климат >> Архив погоды >> Россия >> Калининградская область >> Балтийск


ПОГОДА в Балтийске

  • Прогноз погоды в Балтийске
  • Монитор погоды в Балтийске
  • Климат города

АРХИВ ПОГОДЫ в Балтийске

Время (UTC), дата Ветер
(напр.,м/с)
 
Видим.   Явления Облачность Т
(С)
Тd
(С)
f
(%)
Тe
(С)
Тes
(С)
Комфортность P
(гПа)
Po
(гПа)
Тmin
(С)
Tmax
(С)
R
(мм)
R24
(мм)
S
(см)
03 17.10 Ю 3-4
{5}
20 км 4/0
[Ci sp]
+10.2 +7.7 84 +8 +8 1021.3 1020.8 +10.0
06 17.10 Ю 2-3
{4}
10 км ясно +11.0 +8.8 86 +10 +10 1021.9 1021.4 +10.0
09 17.10 Ю 2-3
{4}
4000 м дымка 3/0
[Ci fib]
+13.8 +10.6 81 +13 +16 1022.5 1022.0
12 17.10 Ю 1-2
{2}
10 км 6/3 600 м
[Sc Ci fib]
+17.7 +9.8 60 +19 +21 1021.9 1021.4
15 17.10 В 1-1
{2}
20 км 3/0
[Ci sp]
+17.5 +11.5 68 +19 +19 1021.5 1021.0
18 17.10 штиль 0
{1}
20 км ясно +15.8 +11.8 77 +16 +16 1021.9 1021.4 +17.8
21 17.10 В 2-3
{4}
20 км ясно +14.1 +10.5 79 +14 +14 1021.9 1021.4
00 18.10 ЮВ 2-3
{5}
20 км ясно +13.2 +10.5 84 +12 +12 1021.8 1021.3
03 18.10 штиль 0
{3}
20 км ясно +12.1 +9.5 84 +12 +12 1020.0 1019.5 +12.1
06 18.10 ЮВ 1-2
{2}
10 км ясно +11.0 +9.0 87 +11 +11 1019.7 1019.2 +10.8
09 18.10 ЮВ 1-2
{4}
4000 м дымка ясно +12.8 +9.7 81 +13 +16 1019.7 1019.2
12 18.10 З 1-2
{4}
4000 м дымка ясно +16.0 +11.2 73 +17 +20 1018.6 1018.1
15 18.10 штиль 0
{3}
4000 м дымка 3/0
[Ci fib]
+15.2 +11.5 79 +15 +15 1018.7 1018.2
18 18.10 СЗ 1-2
{3}
4000 м дымка ясно +12.4 +10.1 86 +12 +12 1019.3 1018.8 +16.2
21 18.10 СЗ 2-3
{5}
4000 м дымка 4/0
[Ci fib]
+12.2 +10.3 88 +11 +11 1020.3 1019.8
00 19.10 С 2-3
{5}
4000 м дымка 4/0
[Ci fib]
+12.5 +10.6 88 +12 +12 1021.0 1020.5
03 19.10 СВ 2-3
{6}
20 км 3/3 600 м
[Sc]
+11.3 +8.9 85 +10 +10 1021.5 1021.0 +11.2
06 19.10 С 2-3
{5}
20 км 4/4 600 м
[Cu Sc]
+11.5 +8.5 82 +10 +10 1022.5 1022.0 +11.1
09 19.10 С 2-3
{6}
20 км 3/3
[Cu med, cong]
+14.0 +8.0 67 +14 +15 1023.8 1023.3
12 19.10 СЗ 2-3
{6}
20 км 5/3 600 м
[Cu Sc Ci fib]
+14.5 +8.6 68 +14 +16 1023.9 1023.4
15 19.10 СЗ 3-4
{7}
20 км 6/3 600 м
[Sc Ci fib]
+13.1 +7.6 69 +12 +12 1023.8 1023.3
18 19.10 В 1-1
{3}
20 км 4/3 600 м
[Cu Sc Ci fib]
+9.4 +5.9 79 +9 +9 1024.2 1023.6 +14.5
21 19.10 штиль 0
{1}
20 км 6/6 600 м
[Cu Sc]
+9.0 +5.7 80 +8 +8 1024.5 1024.0
00 20.10 З 2-3
{5}
20 км 8/8 600 м
[Cu Sc]
+9.6 +6.6 82 +8 +8 1024.2 1023.7
03 20.10 З 5-5
{6}
20 км 1/1 600 м
[Cu Sc]
+11.0 +6.6 74 +8 +8 1023.8 1023.3 +9.0
06 20.10 З 4-5
{6}
20 км 9/9 600 м
[Cu Sc]
+11.2 +6.8 74 +9 +9 1023.8 1023.3 +9.0
09 20.10 ЮЗ 3-4
{6}
20 км 10/10 600 м
[Cu Sc]
+11.6 +8.1 79 +10 +10 1023.9 1023.4
12 20.10 СЗ 3-5
{9}
20 км 8/8 600 м
[Cu Sc]
+11.4 +7.2 75 +10 +10 1023.9 1023.4
15 20.10 С 4-6
{9}
20 км 9/9 600 м
[Cu Sc]
+11.6 +7.0 73 +10 +10 1023.9 1023.4
18 20.10 штиль 0
{9}
20 км в посл. час ливневой дождь 8/8 300 м
[Cb cap]
+10.2 +7.3 82 +10 +10 1024.6 1024.1 +11.7 0.0
21 20.10 С 2-3
{6}
20 км 3/3 600 м
[Cu Sc]
+9.5 +6.0 79 +8 +8 1025.1 1024.6
00 21.10 С 2-3
{5}
20 км 6/6 600 м
[Sc]
+9.2 +5.9 80 +8 +8 1025.3 1024.8
03 21.10 Ю 2-3
{5}
20 км 3/3 600 м
[Cu Sc]
+8.9 +6.1 83 +7 +7 1026.4 1025.9 +8.7 0.0
06 21.10 Ю 1-2
{3}
10 км 6/6 600 м
[Cu Sc]
+9.0 +6.9 87 +8 +8 1027.1 1026.6 +8.7
09 21.10 Ю 1-2
{3}
20 км 9/9 600 м
[Cu Sc]
+11.4 +8.8 84 +11 +12 1028.4 1027.9
12 21.10 ЮЗ 4-5
{6}
20 км 3/3 600 м
[Cu Sc]
+13.4 +9.7 78 +12 +13 1027.8 1027.3
15 21.10 ЮЗ 3-5
{6}
20 км 8/6 600 м
[Cu Sc Ac trans]
+11.5 +6.7 72 +10 +10 1027.2 1026.7
18 21.10 Ю 5-6
{7}
20 км 3/3 600 м
[Cu Sc]
+10.3 +6.5 77 +7 +7 1026.8 1026.3 +13.4
21 21.10 Ю 6-8
{8}
20 км 4/4 600 м
[Cu Sc]
+9.4 +6.4 82 +6 +6 1023.6 1026.1
00 22.10 Ю 6-8
{8}
20 км 6/6 600 м
[Cu Sc]
+9.1 +5.8 80 +5 +5 1026.8 1026.3
03 22.10 Ю 7-8
{9}
20 км 6/4 600 м
[Cu Sc]
+8.9 +6.1 83 +5 +5 1023.8 1023.3 +8.9
06 22.10 Ю 4-6
{9}
20 км 8/0
[]
+9.2 +7.3 88 +6 +6 1021.9 1021.4 +8.9
09 22.10 ЮЗ 7-10
{10}
10 км 9/0
[As trans]
+10.2 +7.7 84 +6 +7 1021.3 1020.8
12 22.10 ЮЗ 8-10
{11}
4000 м слабый ливневой дождь 10/10 300 м
[Cb cap]
+10.2 +8.4 89 +6 +6 1019.7 1019.2
15 22.10 СЗ 8-12
{13}
20 км {ливн. осадки} 9/9 300 м
[Cb cap]
+11.8 +8.8 82 +8 +8 1019.8 1019.3 3
18 22.10 СЗ 7-10
{12}
20 км {ливн. осадки} 8/8 600 м
[Cu Sc]
+9.8 +6.4 79 +6 +6 1020.2 1019.7 +11.8 3
21 22.10 СЗ 8-12
{12}
20 км 8/8 600 м
[Cu Sc]
+10.0 +7.0 82 +6 +6 1019.7 1019.2
00 23.10 З 9-12
{14}
20 км 6/4 600 м
[Cu Sc Ci fib]
+9.8 +6.8 82 +5 +5 1017.4 1016.9
03 23.10 Ю 10-12
{14}
20 км 9/9 600 м
[Cu Sc]
+7.8 +4.6 80 +3 +3 1013.3 1012.8 +7.6
06 23.10 ЮЗ 10-14
{16}
4000 м слабый ливневой дождь 10/10 300 м
[Cb cap]
+7.8 +6.7 93 +2 +2 1006.6 1006.1 +7.6
09 23.10 Ю 14-19
{19}
4000 м слабый ливневой дождь 10/10 300 м
[Cb cap]
+7.2 +6.3 94 +1 +1 999.3 998.8
12 23.10 ЮЗ 14-18
{19}
4000 м слабый ливневой дождь 10/10 300 м
[Cb cap]
+8.8 +8.6 99 +3 +3 992.9 992.4
15 23.10 СЗ 11-15
{21}
20 км {ливн. осадки} 8/8 300 м
[Cb cap]
+11.2 +8.8 85 +7 +7 991.9 991.4 14
18 23.10 СЗ 11-17
{19}
20 км {ливн. осадки} 6/6 600 м
[Cu Sc]
+9.9 +6.2 78 +5 +5 990.6 990.1 +11.2 12
21 23.10 В 10-16
{18}
20 км слабый ливневой дождь 8/8 300 м
[Cb cap]
+8.7 +5.4 80 +4 +4 990.8 990.3
00 24.10 С 10-17
{18}
20 км {ливн. осадки} 9/9 600 м
[Cu Sc]
+7.1 +3.6 78 +2 +2 990.9 990.4

 

Местоположение метеостанции Балтийск (Калининградская область, Россия): широта 54.65 долгота 19.88 высота над уровнем моря 4 м.

В архиве по умолчанию представлена погода в Балтийске за последнюю неделю. Архивные данные за месяц целиком и за предыдущие месяцы, начиная с января 2011 года, Вы можете получить, выбрав интересующий диапазон дат из раскрывающегося списка и нажав кнопку "Ввод!".


*Определитесь, кто Вы:
робот инопланетянин человек

Внимание! Время в таблицах - всемирное. Для получения местного времени необходимо прибавить поправку, которая в Балтийске равна 2 ч.

Смотрите также архив погоды в соседних городах и на ближайших метеорологических станциях:

Погода в Мамоново (Калининградская область, Россия) (20 км)
Погода в Рыбном Порту (Калининградская область, Россия) (37 км)
Погода в Пионерском (Калининградская область, Россия) (40 км)
Погода в Калининграде (Калининградская область, Россия) (48 км)
Погода в Elblag (Польша) (61 км)
Погода в Hel (Польша) (68 км)
Погода в Рыбачьем (Калининградская область, Россия) (84 км)
Погода в Oksywie (Польша) (88 км)
Погода в Железнодорожном (Калининградская область, Россия) (97 км)
Погода в Olsztyn (Польша) (104 км)

Пояснения к столбцам:

Ветер - указаны скорость ветра в м/с - средняя за 10 мин, порывы в срок и между сроками (в фигурных скобках) и направление, откуда дует ветер: С - северный, СВ - северо-восточный, В - восточный, ЮВ - юго-восточный, Ю - южный, ЮЗ - юго-западный, З - западный, СЗ - северо-западный.
Видимость - горизонтальная дальность видимости в метрах или километрах. При видимости от 1 до 10 км при отсутствии осадков обычно наблюдается дымка, при ухудшении видимости до 1 км и менее - туман. В сухую погоду видимость может ухудшаться дымом, пылью или мглою.
Явления - указаны атмосферные явления, наблюдавшиеся в срок или в последний час перед сроком; фигурными скобками обозначены явления, наблюдавшиеся между сроками (за 1-3 часа до срока); квадратными скобками обозначены град или гололедные отложения с указанием их диаметра в мм.
Облачность - указаны через наклонную черту общая и нижняя облачность в баллах и высота нижней границы облаков в метрах; квадратными скобками обозначены формы облаков: Ci - перистые, Cs - перисто-слоистые, Cc - перисто-кучевые, Ac - высококучевые, As - высокослоистые, Sc - слоисто-кучевые, Ns - слоисто-дождевые, Cu - кучевые, Cb - кучево-дождевые. Подробнее классификацию облаков см. в Атласе облаков (PDF).
T - Температура воздуха - температура, измеренная на высоте 2 м над землей.
Td - Температура точки росы - температура, при понижении до которой содержащийся в воздухе водяной пар достигнет насыщения.
f - Относительная влажность воздуха - влажноcть воздуха, измеренная на высоте 2 м над землей.
Te - Эффективная температура - температура, которую ощущает одетый по сезону человек в тени. Характеристика душности погоды. При расчете учитывается влияние влажности воздуха и скорости ветра на теплоощущения человека.
Tes - Эффективная температура на солнце - температура, которую ощущает человек, с поправкой на солнечный нагрев. Характеристика знойности погоды. Зависит от высоты солнца над горизонтом, облачности и скорости ветра. Ночью, в пасмурную погоду, а также при ветре 12 м/с и более поправка равна нулю.
P - Атмосферное давление - приведенное к уровню моря атмосферное давление.
Po - Атмосферное давление - измеренное на уровне метеостанции атмосферное давление.
Tmin - Минимальная температура - минимум температуры воздуха на высоте 2 м над землей.
Tmax - Максимальная температура - максимум температуры воздуха на высоте 2 м над землей.
R - Количество осадков - Количество выпавших осадков за период времени, мм. При наведении курсора мыши на число - период времени, за который выпало указанное количество осадков.
R24 - Количество осадков - Количество выпавших осадков за 24 часа, мм.
S - Снежный покров - Высота снежного покрова, см. При наведении курсора мыши на число - состояние снежного покрова и степень покрытия местности в баллах.